owner,sensor,date,latitude,longitude,air_temperature,qcFlag 
WAVCIS,ioos:station:WAVCIS:CSI03:1,2015-12-01T00:00:00Z,29.4412,-92.0613,20.21,11111222 
WAVCIS,ioos:station:WAVCIS:CSI03:1,2015-12-01T01:00:00Z,29.4412,-92.0613,19.63,11111222 
WAVCIS,ioos:station:WAVCIS:CSI03:1,2015-12-01T02:00:00Z,29.4412,-92.0613,19.78,11111222 
WAVCIS,ioos:station:WAVCIS:CSI03:1,2015-12-01T03:00:00Z,29.4412,-92.0613,20.08,11111222 
WAVCIS,ioos:station:WAVCIS:CSI03:1,2015-12-01T04:00:00Z,29.4412,-92.0613,20.09,11111222 
WAVCIS,ioos:station:WAVCIS:CSI03:1,2015-12-01T05:00:00Z,29.4412,-92.0613,20.07,11111222 
WAVCIS,ioos:station:WAVCIS:CSI03:1,2015-12-01T06:00:00Z,29.4412,-92.0613,20.19,11111222 
WAVCIS,ioos:station:WAVCIS:CSI03:1,2015-12-01T07:00:00Z,29.4412,-92.0613,20.2,11111222 
WAVCIS,ioos:station:WAVCIS:CSI03:1,2015-12-01T08:00:00Z,29.4412,-92.0613,20.05,11111222 
WAVCIS,ioos:station:WAVCIS:CSI03:1,2015-12-01T09:00:00Z,29.4412,-92.0613,19.99,11111222 
WAVCIS,ioos:station:WAVCIS:CSI03:1,2015-12-01T10:00:00Z,29.4412,-92.0613,19.95,11111222 
WAVCIS,ioos:station:WAVCIS:CSI03:1,2015-12-01T11:00:00Z,29.4412,-92.0613,19.99,11111222 
WAVCIS,ioos:station:WAVCIS:CSI03:1,2015-12-01T12:00:00Z,29.4412,-92.0613,19.86,11111222 
WAVCIS,ioos:station:WAVCIS:CSI03:1,2015-12-01T13:00:00Z,29.4412,-92.0613,19.81,11111222 
WAVCIS,ioos:station:WAVCIS:CSI03:1,2015-12-01T14:00:00Z,29.4412,-92.0613,19.99,11111222 
WAVCIS,ioos:station:WAVCIS:CSI03:1,2015-12-01T15:00:00Z,29.4412,-92.0613,20.17,11111222 
WAVCIS,ioos:station:WAVCIS:CSI03:1,2015-12-01T16:00:00Z,29.4412,-92.0613,20.0,11111222 
WAVCIS,ioos:station:WAVCIS:CSI03:1,2015-12-01T17:00:00Z,29.4412,-92.0613,20.14,11111222 
WAVCIS,ioos:station:WAVCIS:CSI03:1,2015-12-01T18:00:00Z,29.4412,-92.0613,19.78,11111222 
WAVCIS,ioos:station:WAVCIS:CSI03:1,2015-12-01T19:00:00Z,29.4412,-92.0613,19.54,11111222 
WAVCIS,ioos:station:WAVCIS:CSI03:1,2015-12-01T20:00:00Z,29.4412,-92.0613,18.07,11111222 
WAVCIS,ioos:station:WAVCIS:CSI03:1,2015-12-01T21:00:00Z,29.4412,-92.0613,18.61,11111222 
WAVCIS,ioos:station:WAVCIS:CSI03:1,2015-12-01T22:00:00Z,29.4412,-92.0613,17.93,11111222 
WAVCIS,ioos:station:WAVCIS:CSI03:1,2015-12-01T23:00:00Z,29.4412,-92.0613,17.69,11111222 
WAVCIS,ioos:station:WAVCIS:CSI03:1,2015-12-02T00:00:00Z,29.4412,-92.0613,17.61,11111222 
WAVCIS,ioos:station:WAVCIS:CSI03:1,2015-12-02T01:00:00Z,29.4412,-92.0613,17.74,11111222 
WAVCIS,ioos:station:WAVCIS:CSI03:1,2015-12-02T02:00:00Z,29.4412,-92.0613,17.76,11111222 
WAVCIS,ioos:station:WAVCIS:CSI03:1,2015-12-02T03:00:00Z,29.4412,-92.0613,17.87,11111222 
WAVCIS,ioos:station:WAVCIS:CSI03:1,2015-12-02T04:00:00Z,29.4412,-92.0613,17.39,11111222 
WAVCIS,ioos:station:WAVCIS:CSI03:1,2015-12-02T05:00:00Z,29.4412,-92.0613,17.38,11111222 
WAVCIS,ioos:station:WAVCIS:CSI03:1,2015-12-02T06:00:00Z,29.4412,-92.0613,17.0,11111222 
WAVCIS,ioos:station:WAVCIS:CSI03:1,2015-12-02T07:00:00Z,29.4412,-92.0613,16.64,11111222 
WAVCIS,ioos:station:WAVCIS:CSI03:1,2015-12-02T08:00:00Z,29.4412,-92.0613,16.33,11111222 
WAVCIS,ioos:station:WAVCIS:CSI03:1,2015-12-02T09:00:00Z,29.4412,-92.0613,15.62,11111222 
WAVCIS,ioos:station:WAVCIS:CSI03:1,2015-12-02T10:00:00Z,29.4412,-92.0613,15.15,11111222 
WAVCIS,ioos:station:WAVCIS:CSI03:1,2015-12-02T11:00:00Z,29.4412,-92.0613,15.16,11111222 
WAVCIS,ioos:station:WAVCIS:CSI03:1,2015-12-02T12:00:00Z,29.4412,-92.0613,13.84,11111222 
WAVCIS,ioos:station:WAVCIS:CSI03:1,2015-12-02T13:00:00Z,29.4412,-92.0613,12.56,11111222 
WAVCIS,ioos:station:WAVCIS:CSI03:1,2015-12-02T14:00:00Z,29.4412,-92.0613,12.39,11111222 
WAVCIS,ioos:station:WAVCIS:CSI03:1,2015-12-02T15:00:00Z,29.4412,-92.0613,13.25,11111222 
WAVCIS,ioos:station:WAVCIS:CSI03:1,2015-12-02T16:00:00Z,29.4412,-92.0613,13.16,11111222 
WAVCIS,ioos:station:WAVCIS:CSI03:1,2015-12-02T17:00:00Z,29.4412,-92.0613,13.43,11111222 
WAVCIS,ioos:station:WAVCIS:CSI03:1,2015-12-02T18:00:00Z,29.4412,-92.0613,13.53,11111222 
WAVCIS,ioos:station:WAVCIS:CSI03:1,2015-12-02T19:00:00Z,29.4412,-92.0613,13.87,11111222 
WAVCIS,ioos:station:WAVCIS:CSI03:1,2015-12-02T20:00:00Z,29.4412,-92.0613,14.46,11111222 
WAVCIS,ioos:station:WAVCIS:CSI03:1,2015-12-02T21:00:00Z,29.4412,-92.0613,14.62,11111222 
WAVCIS,ioos:station:WAVCIS:CSI03:1,2015-12-02T22:00:00Z,29.4412,-92.0613,14.49,11111222 
WAVCIS,ioos:station:WAVCIS:CSI03:1,2015-12-02T23:00:00Z,29.4412,-92.0613,14.34,11111222 
WAVCIS,ioos:station:WAVCIS:CSI03:1,2015-12-03T00:00:00Z,29.4412,-92.0613,14.41,11111222 
WAVCIS,ioos:station:WAVCIS:CSI03:1,2015-12-03T01:00:00Z,29.4412,-92.0613,14.06,11111222 
WAVCIS,ioos:station:WAVCIS:CSI03:1,2015-12-03T02:00:00Z,29.4412,-92.0613,14.0,11111222 
WAVCIS,ioos:station:WAVCIS:CSI03:1,2015-12-03T03:00:00Z,29.4412,-92.0613,14.1,11111222 
WAVCIS,ioos:station:WAVCIS:CSI03:1,2015-12-03T04:00:00Z,29.4412,-92.0613,14.34,11111222 
WAVCIS,ioos:station:WAVCIS:CSI03:1,2015-12-03T05:00:00Z,29.4412,-92.0613,13.98,11111222 
WAVCIS,ioos:station:WAVCIS:CSI03:1,2015-12-03T06:00:00Z,29.4412,-92.0613,13.81,11111222 
WAVCIS,ioos:station:WAVCIS:CSI03:1,2015-12-03T07:00:00Z,29.4412,-92.0613,13.29,11111222 
WAVCIS,ioos:station:WAVCIS:CSI03:1,2015-12-03T08:00:00Z,29.4412,-92.0613,13.28,11111222 
WAVCIS,ioos:station:WAVCIS:CSI03:1,2015-12-03T09:00:00Z,29.4412,-92.0613,12.87,11111222 
WAVCIS,ioos:station:WAVCIS:CSI03:1,2015-12-03T10:00:00Z,29.4412,-92.0613,12.37,11111222 
WAVCIS,ioos:station:WAVCIS:CSI03:1,2015-12-03T11:00:00Z,29.4412,-92.0613,11.8,11111222 
WAVCIS,ioos:station:WAVCIS:CSI03:1,2015-12-03T12:00:00Z,29.4412,-92.0613,11.48,11111222 
WAVCIS,ioos:station:WAVCIS:CSI03:1,2015-12-03T13:00:00Z,29.4412,-92.0613,11.04,11111222 
WAVCIS,ioos:station:WAVCIS:CSI03:1,2015-12-03T14:00:00Z,29.4412,-92.0613,10.66,11111222 
WAVCIS,ioos:station:WAVCIS:CSI03:1,2015-12-03T15:00:00Z,29.4412,-92.0613,10.49,11111222 
WAVCIS,ioos:station:WAVCIS:CSI03:1,2015-12-03T16:00:00Z,29.4412,-92.0613,10.65,11111222 
WAVCIS,ioos:station:WAVCIS:CSI03:1,2015-12-03T17:00:00Z,29.4412,-92.0613,11.02,11111222 
WAVCIS,ioos:station:WAVCIS:CSI03:1,2015-12-03T18:00:00Z,29.4412,-92.0613,11.73,11111222 
WAVCIS,ioos:station:WAVCIS:CSI03:1,2015-12-03T19:00:00Z,29.4412,-92.0613,12.43,11111222 
WAVCIS,ioos:station:WAVCIS:CSI03:1,2015-12-03T20:00:00Z,29.4412,-92.0613,13.12,11111222 
WAVCIS,ioos:station:WAVCIS:CSI03:1,2015-12-03T21:00:00Z,29.4412,-92.0613,13.49,11111222 
WAVCIS,ioos:station:WAVCIS:CSI03:1,2015-12-03T22:00:00Z,29.4412,-92.0613,13.96,11111222 
WAVCIS,ioos:station:WAVCIS:CSI03:1,2015-12-03T23:00:00Z,29.4412,-92.0613,14.21,11111222 
WAVCIS,ioos:station:WAVCIS:CSI03:1,2015-12-04T00:00:00Z,29.4412,-92.0613,13.93,11111222 
WAVCIS,ioos:station:WAVCIS:CSI03:1,2015-12-04T01:00:00Z,29.4412,-92.0613,13.19,11111222 
WAVCIS,ioos:station:WAVCIS:CSI03:1,2015-12-04T02:00:00Z,29.4412,-92.0613,12.72,11111222 
WAVCIS,ioos:station:WAVCIS:CSI03:1,2015-12-04T03:00:00Z,29.4412,-92.0613,12.12,11111222 
WAVCIS,ioos:station:WAVCIS:CSI03:1,2015-12-04T04:00:00Z,29.4412,-92.0613,11.95,11111222 
WAVCIS,ioos:station:WAVCIS:CSI03:1,2015-12-04T05:00:00Z,29.4412,-92.0613,11.37,11111222 
WAVCIS,ioos:station:WAVCIS:CSI03:1,2015-12-04T06:00:00Z,29.4412,-92.0613,10.78,11111222 
WAVCIS,ioos:station:WAVCIS:CSI03:1,2015-12-04T07:00:00Z,29.4412,-92.0613,10.27,11111222 
WAVCIS,ioos:station:WAVCIS:CSI03:1,2015-12-04T08:00:00Z,29.4412,-92.0613,9.76,11111222 
WAVCIS,ioos:station:WAVCIS:CSI03:1,2015-12-04T09:00:00Z,29.4412,-92.0613,9.52,11111222 
WAVCIS,ioos:station:WAVCIS:CSI03:1,2015-12-04T10:00:00Z,29.4412,-92.0613,9.08,11111222 
WAVCIS,ioos:station:WAVCIS:CSI03:1,2015-12-04T11:00:00Z,29.4412,-92.0613,8.79,11111222 
WAVCIS,ioos:station:WAVCIS:CSI03:1,2015-12-04T12:00:00Z,29.4412,-92.0613,8.93,11111222 
WAVCIS,ioos:station:WAVCIS:CSI03:1,2015-12-04T13:00:00Z,29.4412,-92.0613,8.31,11111222 
WAVCIS,ioos:station:WAVCIS:CSI03:1,2015-12-04T14:00:00Z,29.4412,-92.0613,8.52,11111222 
WAVCIS,ioos:station:WAVCIS:CSI03:1,2015-12-04T15:00:00Z,29.4412,-92.0613,9.13,11111222 
WAVCIS,ioos:station:WAVCIS:CSI03:1,2015-12-04T16:00:00Z,29.4412,-92.0613,9.63,11111222 
WAVCIS,ioos:station:WAVCIS:CSI03:1,2015-12-04T17:00:00Z,29.4412,-92.0613,10.61,11111222 
WAVCIS,ioos:station:WAVCIS:CSI03:1,2015-12-04T18:00:00Z,29.4412,-92.0613,11.08,11111222 
WAVCIS,ioos:station:WAVCIS:CSI03:1,2015-12-04T19:00:00Z,29.4412,-92.0613,11.35,11111222 
WAVCIS,ioos:station:WAVCIS:CSI03:1,2015-12-04T20:00:00Z,29.4412,-92.0613,11.91,11111222 
WAVCIS,ioos:station:WAVCIS:CSI03:1,2015-12-04T21:00:00Z,29.4412,-92.0613,12.86,11111222 
WAVCIS,ioos:station:WAVCIS:CSI03:1,2015-12-04T22:00:00Z,29.4412,-92.0613,14.1,11111222 
WAVCIS,ioos:station:WAVCIS:CSI03:1,2015-12-04T23:00:00Z,29.4412,-92.0613,14.42,11111222 
WAVCIS,ioos:station:WAVCIS:CSI03:1,2015-12-05T00:00:00Z,29.4412,-92.0613,14.39,11111222 
WAVCIS,ioos:station:WAVCIS:CSI03:1,2015-12-05T01:00:00Z,29.4412,-92.0613,14.24,11111222 
WAVCIS,ioos:station:WAVCIS:CSI03:1,2015-12-05T02:00:00Z,29.4412,-92.0613,14.11,11111222 
WAVCIS,ioos:station:WAVCIS:CSI03:1,2015-12-05T03:00:00Z,29.4412,-92.0613,13.54,11111222 
WAVCIS,ioos:station:WAVCIS:CSI03:1,2015-12-05T04:00:00Z,29.4412,-92.0613,12.96,11111222 
WAVCIS,ioos:station:WAVCIS:CSI03:1,2015-12-05T05:00:00Z,29.4412,-92.0613,12.59,11111222 
WAVCIS,ioos:station:WAVCIS:CSI03:1,2015-12-05T06:00:00Z,29.4412,-92.0613,12.38,11111222 
WAVCIS,ioos:station:WAVCIS:CSI03:1,2015-12-05T07:00:00Z,29.4412,-92.0613,12.29,11111222 
WAVCIS,ioos:station:WAVCIS:CSI03:1,2015-12-05T08:00:00Z,29.4412,-92.0613,12.02,11111222 
WAVCIS,ioos:station:WAVCIS:CSI03:1,2015-12-05T09:00:00Z,29.4412,-92.0613,11.53,11111222 
WAVCIS,ioos:station:WAVCIS:CSI03:1,2015-12-05T10:00:00Z,29.4412,-92.0613,11.34,11111222 
WAVCIS,ioos:station:WAVCIS:CSI03:1,2015-12-05T11:00:00Z,29.4412,-92.0613,11.34,11111222 
WAVCIS,ioos:station:WAVCIS:CSI03:1,2015-12-05T12:00:00Z,29.4412,-92.0613,11.21,11111222 
WAVCIS,ioos:station:WAVCIS:CSI03:1,2015-12-05T13:00:00Z,29.4412,-92.0613,10.99,11111222 
WAVCIS,ioos:station:WAVCIS:CSI03:1,2015-12-05T14:00:00Z,29.4412,-92.0613,10.97,11111222 
WAVCIS,ioos:station:WAVCIS:CSI03:1,2015-12-05T15:00:00Z,29.4412,-92.0613,11.46,11111222 
WAVCIS,ioos:station:WAVCIS:CSI03:1,2015-12-05T16:00:00Z,29.4412,-92.0613,12.34,11111222 
WAVCIS,ioos:station:WAVCIS:CSI03:1,2015-12-05T17:00:00Z,29.4412,-92.0613,13.42,11111222 
WAVCIS,ioos:station:WAVCIS:CSI03:1,2015-12-05T18:00:00Z,29.4412,-92.0613,14.85,11111222 
WAVCIS,ioos:station:WAVCIS:CSI03:1,2015-12-05T19:00:00Z,29.4412,-92.0613,14.87,11111222 
WAVCIS,ioos:station:WAVCIS:CSI03:1,2015-12-05T20:00:00Z,29.4412,-92.0613,15.63,11111222 
WAVCIS,ioos:station:WAVCIS:CSI03:1,2015-12-05T21:00:00Z,29.4412,-92.0613,16.73,11111222 
WAVCIS,ioos:station:WAVCIS:CSI03:1,2015-12-05T22:00:00Z,29.4412,-92.0613,16.99,11111222 
WAVCIS,ioos:station:WAVCIS:CSI03:1,2015-12-05T23:00:00Z,29.4412,-92.0613,16.95,11111222 
WAVCIS,ioos:station:WAVCIS:CSI03:1,2015-12-06T00:00:00Z,29.4412,-92.0613,17.03,11111222 
WAVCIS,ioos:station:WAVCIS:CSI03:1,2015-12-06T01:00:00Z,29.4412,-92.0613,16.54,11111222 
WAVCIS,ioos:station:WAVCIS:CSI03:1,2015-12-06T02:00:00Z,29.4412,-92.0613,16.37,11111222 
WAVCIS,ioos:station:WAVCIS:CSI03:1,2015-12-06T03:00:00Z,29.4412,-92.0613,15.95,11111222 
WAVCIS,ioos:station:WAVCIS:CSI03:1,2015-12-06T04:00:00Z,29.4412,-92.0613,16.16,11111222 
WAVCIS,ioos:station:WAVCIS:CSI03:1,2015-12-06T05:00:00Z,29.4412,-92.0613,16.22,11111222 
WAVCIS,ioos:station:WAVCIS:CSI03:1,2015-12-06T06:00:00Z,29.4412,-92.0613,16.29,11111222 
WAVCIS,ioos:station:WAVCIS:CSI03:1,2015-12-06T07:00:00Z,29.4412,-92.0613,15.77,11111222 
WAVCIS,ioos:station:WAVCIS:CSI03:1,2015-12-06T08:00:00Z,29.4412,-92.0613,15.54,11111222 
WAVCIS,ioos:station:WAVCIS:CSI03:1,2015-12-06T09:00:00Z,29.4412,-92.0613,14.77,11111222 
WAVCIS,ioos:station:WAVCIS:CSI03:1,2015-12-06T10:00:00Z,29.4412,-92.0613,14.65,11111222 
WAVCIS,ioos:station:WAVCIS:CSI03:1,2015-12-06T11:00:00Z,29.4412,-92.0613,14.17,11111222 
WAVCIS,ioos:station:WAVCIS:CSI03:1,2015-12-06T12:00:00Z,29.4412,-92.0613,13.94,11111222 
WAVCIS,ioos:station:WAVCIS:CSI03:1,2015-12-06T13:00:00Z,29.4412,-92.0613,13.66,11111222 
WAVCIS,ioos:station:WAVCIS:CSI03:1,2015-12-06T14:00:00Z,29.4412,-92.0613,13.95,11111222 
WAVCIS,ioos:station:WAVCIS:CSI03:1,2015-12-06T15:00:00Z,29.4412,-92.0613,14.6,11111222 
WAVCIS,ioos:station:WAVCIS:CSI03:1,2015-12-06T16:00:00Z,29.4412,-92.0613,14.87,11111222 
WAVCIS,ioos:station:WAVCIS:CSI03:1,2015-12-06T17:00:00Z,29.4412,-92.0613,15.78,11111222 
WAVCIS,ioos:station:WAVCIS:CSI03:1,2015-12-06T18:00:00Z,29.4412,-92.0613,16.57,11111222 
WAVCIS,ioos:station:WAVCIS:CSI03:1,2015-12-06T19:00:00Z,29.4412,-92.0613,17.03,11111222 
WAVCIS,ioos:station:WAVCIS:CSI03:1,2015-12-06T20:00:00Z,29.4412,-92.0613,18.23,11111222 
WAVCIS,ioos:station:WAVCIS:CSI03:1,2015-12-06T21:00:00Z,29.4412,-92.0613,19.0,11111222 
WAVCIS,ioos:station:WAVCIS:CSI03:1,2015-12-06T22:00:00Z,29.4412,-92.0613,19.6,11111222 
WAVCIS,ioos:station:WAVCIS:CSI03:1,2015-12-06T23:00:00Z,29.4412,-92.0613,17.9,11111222 
WAVCIS,ioos:station:WAVCIS:CSI03:1,2015-12-07T00:00:00Z,29.4412,-92.0613,17.72,11111222 
WAVCIS,ioos:station:WAVCIS:CSI03:1,2015-12-07T01:00:00Z,29.4412,-92.0613,17.75,11111222 
WAVCIS,ioos:station:WAVCIS:CSI03:1,2015-12-07T02:00:00Z,29.4412,-92.0613,16.95,11111222 
WAVCIS,ioos:station:WAVCIS:CSI03:1,2015-12-07T03:00:00Z,29.4412,-92.0613,16.91,11111222 
WAVCIS,ioos:station:WAVCIS:CSI03:1,2015-12-07T04:00:00Z,29.4412,-92.0613,16.69,11111222 
WAVCIS,ioos:station:WAVCIS:CSI03:1,2015-12-07T05:00:00Z,29.4412,-92.0613,16.08,11111222 
WAVCIS,ioos:station:WAVCIS:CSI03:1,2015-12-07T06:00:00Z,29.4412,-92.0613,15.86,11111222 
WAVCIS,ioos:station:WAVCIS:CSI03:1,2015-12-07T07:00:00Z,29.4412,-92.0613,15.67,11111222 
WAVCIS,ioos:station:WAVCIS:CSI03:1,2015-12-07T08:00:00Z,29.4412,-92.0613,15.48,11111222 
WAVCIS,ioos:station:WAVCIS:CSI03:1,2015-12-07T09:00:00Z,29.4412,-92.0613,15.23,11111222 
WAVCIS,ioos:station:WAVCIS:CSI03:1,2015-12-07T10:00:00Z,29.4412,-92.0613,14.95,11111222 
WAVCIS,ioos:station:WAVCIS:CSI03:1,2015-12-07T11:00:00Z,29.4412,-92.0613,14.77,11111222 
WAVCIS,ioos:station:WAVCIS:CSI03:1,2015-12-07T12:00:00Z,29.4412,-92.0613,14.52,11111222 
WAVCIS,ioos:station:WAVCIS:CSI03:1,2015-12-07T13:00:00Z,29.4412,-92.0613,14.35,11111222 
WAVCIS,ioos:station:WAVCIS:CSI03:1,2015-12-07T14:00:00Z,29.4412,-92.0613,15.02,11111222 
WAVCIS,ioos:station:WAVCIS:CSI03:1,2015-12-07T15:00:00Z,29.4412,-92.0613,15.31,11111222 
WAVCIS,ioos:station:WAVCIS:CSI03:1,2015-12-07T16:00:00Z,29.4412,-92.0613,15.9,11111222 
WAVCIS,ioos:station:WAVCIS:CSI03:1,2015-12-07T17:00:00Z,29.4412,-92.0613,16.87,11111222 
WAVCIS,ioos:station:WAVCIS:CSI03:1,2015-12-07T18:00:00Z,29.4412,-92.0613,16.92,11111222 
WAVCIS,ioos:station:WAVCIS:CSI03:1,2015-12-07T19:00:00Z,29.4412,-92.0613,19.59,11111222 
WAVCIS,ioos:station:WAVCIS:CSI03:1,2015-12-07T20:00:00Z,29.4412,-92.0613,17.77,11111222 
WAVCIS,ioos:station:WAVCIS:CSI03:1,2015-12-07T21:00:00Z,29.4412,-92.0613,19.8,11111222 
WAVCIS,ioos:station:WAVCIS:CSI03:1,2015-12-07T22:00:00Z,29.4412,-92.0613,19.64,11111222 
WAVCIS,ioos:station:WAVCIS:CSI03:1,2015-12-07T23:00:00Z,29.4412,-92.0613,18.38,11111222 
WAVCIS,ioos:station:WAVCIS:CSI03:1,2015-12-08T00:00:00Z,29.4412,-92.0613,16.87,11111222 
WAVCIS,ioos:station:WAVCIS:CSI03:1,2015-12-08T01:00:00Z,29.4412,-92.0613,16.85,11111222 
WAVCIS,ioos:station:WAVCIS:CSI03:1,2015-12-08T02:00:00Z,29.4412,-92.0613,16.83,11111222 
WAVCIS,ioos:station:WAVCIS:CSI03:1,2015-12-08T03:00:00Z,29.4412,-92.0613,16.64,11111222 
WAVCIS,ioos:station:WAVCIS:CSI03:1,2015-12-08T04:00:00Z,29.4412,-92.0613,16.46,11111222 
WAVCIS,ioos:station:WAVCIS:CSI03:1,2015-12-08T05:00:00Z,29.4412,-92.0613,15.99,11111222 
WAVCIS,ioos:station:WAVCIS:CSI03:1,2015-12-08T06:00:00Z,29.4412,-92.0613,15.86,11111222 
WAVCIS,ioos:station:WAVCIS:CSI03:1,2015-12-08T07:00:00Z,29.4412,-92.0613,15.81,11111222 
WAVCIS,ioos:station:WAVCIS:CSI03:1,2015-12-08T08:00:00Z,29.4412,-92.0613,15.46,11111222 
WAVCIS,ioos:station:WAVCIS:CSI03:1,2015-12-08T09:00:00Z,29.4412,-92.0613,15.13,11111222 
WAVCIS,ioos:station:WAVCIS:CSI03:1,2015-12-08T10:00:00Z,29.4412,-92.0613,14.74,11111222 
WAVCIS,ioos:station:WAVCIS:CSI03:1,2015-12-08T11:00:00Z,29.4412,-92.0613,14.67,11111222 
WAVCIS,ioos:station:WAVCIS:CSI03:1,2015-12-08T12:00:00Z,29.4412,-92.0613,14.51,11111222 
WAVCIS,ioos:station:WAVCIS:CSI03:1,2015-12-08T13:00:00Z,29.4412,-92.0613,14.49,11111222 
WAVCIS,ioos:station:WAVCIS:CSI03:1,2015-12-08T14:00:00Z,29.4412,-92.0613,15.1,11111222 
WAVCIS,ioos:station:WAVCIS:CSI03:1,2015-12-08T15:00:00Z,29.4412,-92.0613,15.47,11111222 
WAVCIS,ioos:station:WAVCIS:CSI03:1,2015-12-08T16:00:00Z,29.4412,-92.0613,16.67,11111222 
WAVCIS,ioos:station:WAVCIS:CSI03:1,2015-12-08T17:00:00Z,29.4412,-92.0613,16.58,11111222 
WAVCIS,ioos:station:WAVCIS:CSI03:1,2015-12-08T18:00:00Z,29.4412,-92.0613,16.51,11111222 
WAVCIS,ioos:station:WAVCIS:CSI03:1,2015-12-08T19:00:00Z,29.4412,-92.0613,16.58,11111222 
WAVCIS,ioos:station:WAVCIS:CSI03:1,2015-12-08T20:00:00Z,29.4412,-92.0613,16.78,11111222 
WAVCIS,ioos:station:WAVCIS:CSI03:1,2015-12-08T21:00:00Z,29.4412,-92.0613,16.87,11111222 
WAVCIS,ioos:station:WAVCIS:CSI03:1,2015-12-08T22:00:00Z,29.4412,-92.0613,17.24,11111222 
WAVCIS,ioos:station:WAVCIS:CSI03:1,2015-12-08T23:00:00Z,29.4412,-92.0613,16.99,11111222 
WAVCIS,ioos:station:WAVCIS:CSI03:1,2015-12-09T00:00:00Z,29.4412,-92.0613,17.05,11111222 
WAVCIS,ioos:station:WAVCIS:CSI03:1,2015-12-09T01:00:00Z,29.4412,-92.0613,17.24,11111222 
WAVCIS,ioos:station:WAVCIS:CSI03:1,2015-12-09T02:00:00Z,29.4412,-92.0613,17.24,11111222 
WAVCIS,ioos:station:WAVCIS:CSI03:1,2015-12-09T03:00:00Z,29.4412,-92.0613,17.4,11111222 
WAVCIS,ioos:station:WAVCIS:CSI03:1,2015-12-09T04:00:00Z,29.4412,-92.0613,18.85,11111222 
WAVCIS,ioos:station:WAVCIS:CSI03:1,2015-12-09T05:00:00Z,29.4412,-92.0613,17.82,11111222 
WAVCIS,ioos:station:WAVCIS:CSI03:1,2015-12-09T06:00:00Z,29.4412,-92.0613,18.02,11111222 
WAVCIS,ioos:station:WAVCIS:CSI03:1,2015-12-09T07:00:00Z,29.4412,-92.0613,18.31,11111222 
WAVCIS,ioos:station:WAVCIS:CSI03:1,2015-12-09T08:00:00Z,29.4412,-92.0613,18.36,11111222 
WAVCIS,ioos:station:WAVCIS:CSI03:1,2015-12-09T09:00:00Z,29.4412,-92.0613,19.1,11111222 
WAVCIS,ioos:station:WAVCIS:CSI03:1,2015-12-09T10:00:00Z,29.4412,-92.0613,19.19,11111222 
WAVCIS,ioos:station:WAVCIS:CSI03:1,2015-12-09T11:00:00Z,29.4412,-92.0613,19.54,11111222 
WAVCIS,ioos:station:WAVCIS:CSI03:1,2015-12-09T12:00:00Z,29.4412,-92.0613,18.8,11111222 
WAVCIS,ioos:station:WAVCIS:CSI03:1,2015-12-09T13:00:00Z,29.4412,-92.0613,18.19,11111222 
WAVCIS,ioos:station:WAVCIS:CSI03:1,2015-12-09T14:00:00Z,29.4412,-92.0613,19.07,11111222 
WAVCIS,ioos:station:WAVCIS:CSI03:1,2015-12-09T15:00:00Z,29.4412,-92.0613,19.3,11111222 
WAVCIS,ioos:station:WAVCIS:CSI03:1,2015-12-09T17:00:00Z,29.4412,-92.0613,19.52,11111222 
WAVCIS,ioos:station:WAVCIS:CSI03:1,2015-12-09T18:00:00Z,29.4412,-92.0613,19.42,11111222 
WAVCIS,ioos:station:WAVCIS:CSI03:1,2015-12-09T19:00:00Z,29.4412,-92.0613,21.61,11111222 
WAVCIS,ioos:station:WAVCIS:CSI03:1,2015-12-09T20:00:00Z,29.4412,-92.0613,21.86,11111222 
WAVCIS,ioos:station:WAVCIS:CSI03:1,2015-12-09T21:00:00Z,29.4412,-92.0613,20.31,11111222 
WAVCIS,ioos:station:WAVCIS:CSI03:1,2015-12-09T22:00:00Z,29.4412,-92.0613,20.32,11111222 
WAVCIS,ioos:station:WAVCIS:CSI03:1,2015-12-09T23:00:00Z,29.4412,-92.0613,19.29,11111222 
WAVCIS,ioos:station:WAVCIS:CSI03:1,2015-12-10T00:00:00Z,29.4412,-92.0613,19.53,11111222 
WAVCIS,ioos:station:WAVCIS:CSI03:1,2015-12-10T01:00:00Z,29.4412,-92.0613,19.73,11111222 
WAVCIS,ioos:station:WAVCIS:CSI03:1,2015-12-10T02:00:00Z,29.4412,-92.0613,19.84,11111222 
WAVCIS,ioos:station:WAVCIS:CSI03:1,2015-12-10T03:00:00Z,29.4412,-92.0613,19.89,11111222 
WAVCIS,ioos:station:WAVCIS:CSI03:1,2015-12-10T04:00:00Z,29.4412,-92.0613,19.88,11111222 
WAVCIS,ioos:station:WAVCIS:CSI03:1,2015-12-10T05:00:00Z,29.4412,-92.0613,19.27,11111222 
WAVCIS,ioos:station:WAVCIS:CSI03:1,2015-12-10T06:00:00Z,29.4412,-92.0613,19.08,11111222 
WAVCIS,ioos:station:WAVCIS:CSI03:1,2015-12-10T07:00:00Z,29.4412,-92.0613,19.43,11111222 
WAVCIS,ioos:station:WAVCIS:CSI03:1,2015-12-10T08:00:00Z,29.4412,-92.0613,19.63,11111222 
WAVCIS,ioos:station:WAVCIS:CSI03:1,2015-12-10T09:00:00Z,29.4412,-92.0613,20.13,11111222 
WAVCIS,ioos:station:WAVCIS:CSI03:1,2015-12-10T10:00:00Z,29.4412,-92.0613,20.88,11111222 
WAVCIS,ioos:station:WAVCIS:CSI03:1,2015-12-10T11:00:00Z,29.4412,-92.0613,19.37,11111222 
WAVCIS,ioos:station:WAVCIS:CSI03:1,2015-12-10T12:00:00Z,29.4412,-92.0613,20.05,11111222 
WAVCIS,ioos:station:WAVCIS:CSI03:1,2015-12-10T13:00:00Z,29.4412,-92.0613,19.97,11111222 
WAVCIS,ioos:station:WAVCIS:CSI03:1,2015-12-10T14:00:00Z,29.4412,-92.0613,20.68,11111222 
WAVCIS,ioos:station:WAVCIS:CSI03:1,2015-12-10T15:00:00Z,29.4412,-92.0613,21.76,11111222 
WAVCIS,ioos:station:WAVCIS:CSI03:1,2015-12-10T16:00:00Z,29.4412,-92.0613,23.06,11111222 
WAVCIS,ioos:station:WAVCIS:CSI03:1,2015-12-10T17:00:00Z,29.4412,-92.0613,22.52,11111222 
WAVCIS,ioos:station:WAVCIS:CSI03:1,2015-12-10T18:00:00Z,29.4412,-92.0613,22.34,11111222 
WAVCIS,ioos:station:WAVCIS:CSI03:1,2015-12-10T19:00:00Z,29.4412,-92.0613,22.59,11111222 
WAVCIS,ioos:station:WAVCIS:CSI03:1,2015-12-10T20:00:00Z,29.4412,-92.0613,23.5,11111222 
WAVCIS,ioos:station:WAVCIS:CSI03:1,2015-12-10T21:00:00Z,29.4412,-92.0613,23.29,11111222 
WAVCIS,ioos:station:WAVCIS:CSI03:1,2015-12-10T22:00:00Z,29.4412,-92.0613,22.32,11111222 
WAVCIS,ioos:station:WAVCIS:CSI03:1,2015-12-10T23:00:00Z,29.4412,-92.0613,22.16,11111222 
WAVCIS,ioos:station:WAVCIS:CSI03:1,2015-12-11T00:00:00Z,29.4412,-92.0613,21.76,11111222 
WAVCIS,ioos:station:WAVCIS:CSI03:1,2015-12-11T01:00:00Z,29.4412,-92.0613,21.36,11111222 
WAVCIS,ioos:station:WAVCIS:CSI03:1,2015-12-11T02:00:00Z,29.4412,-92.0613,20.94,11111222 
WAVCIS,ioos:station:WAVCIS:CSI03:1,2015-12-11T03:00:00Z,29.4412,-92.0613,21.35,11111222 
WAVCIS,ioos:station:WAVCIS:CSI03:1,2015-12-11T04:00:00Z,29.4412,-92.0613,21.05,11111222 
WAVCIS,ioos:station:WAVCIS:CSI03:1,2015-12-11T05:00:00Z,29.4412,-92.0613,21.58,11111222 
WAVCIS,ioos:station:WAVCIS:CSI03:1,2015-12-11T06:00:00Z,29.4412,-92.0613,21.88,11111222 
WAVCIS,ioos:station:WAVCIS:CSI03:1,2015-12-11T07:00:00Z,29.4412,-92.0613,21.96,11111222 
WAVCIS,ioos:station:WAVCIS:CSI03:1,2015-12-11T08:00:00Z,29.4412,-92.0613,21.18,11111222 
WAVCIS,ioos:station:WAVCIS:CSI03:1,2015-12-11T09:00:00Z,29.4412,-92.0613,20.96,11111222 
WAVCIS,ioos:station:WAVCIS:CSI03:1,2015-12-11T10:00:00Z,29.4412,-92.0613,21.7,11111222 
WAVCIS,ioos:station:WAVCIS:CSI03:1,2015-12-11T11:00:00Z,29.4412,-92.0613,21.23,11111222 
WAVCIS,ioos:station:WAVCIS:CSI03:1,2015-12-11T12:00:00Z,29.4412,-92.0613,20.99,11111222 
WAVCIS,ioos:station:WAVCIS:CSI03:1,2015-12-11T13:00:00Z,29.4412,-92.0613,21.46,11111222 
WAVCIS,ioos:station:WAVCIS:CSI03:1,2015-12-11T14:00:00Z,29.4412,-92.0613,22.58,11111222 
WAVCIS,ioos:station:WAVCIS:CSI03:1,2015-12-11T15:00:00Z,29.4412,-92.0613,22.52,11111222 
WAVCIS,ioos:station:WAVCIS:CSI03:1,2015-12-11T16:00:00Z,29.4412,-92.0613,23.05,11111222 
WAVCIS,ioos:station:WAVCIS:CSI03:1,2015-12-11T17:00:00Z,29.4412,-92.0613,22.9,11111222 
WAVCIS,ioos:station:WAVCIS:CSI03:1,2015-12-11T18:00:00Z,29.4412,-92.0613,21.68,11111222 
WAVCIS,ioos:station:WAVCIS:CSI03:1,2015-12-11T19:00:00Z,29.4412,-92.0613,22.65,11111222 
WAVCIS,ioos:station:WAVCIS:CSI03:1,2015-12-11T20:00:00Z,29.4412,-92.0613,21.32,11111222 
WAVCIS,ioos:station:WAVCIS:CSI03:1,2015-12-11T21:00:00Z,29.4412,-92.0613,21.29,11111222 
WAVCIS,ioos:station:WAVCIS:CSI03:1,2015-12-11T22:00:00Z,29.4412,-92.0613,21.56,11111222 
WAVCIS,ioos:station:WAVCIS:CSI03:1,2015-12-11T23:00:00Z,29.4412,-92.0613,21.24,11111222 
WAVCIS,ioos:station:WAVCIS:CSI03:1,2015-12-12T00:00:00Z,29.4412,-92.0613,21.07,11111222 
WAVCIS,ioos:station:WAVCIS:CSI03:1,2015-12-12T01:00:00Z,29.4412,-92.0613,21.01,11111222 
WAVCIS,ioos:station:WAVCIS:CSI03:1,2015-12-12T02:00:00Z,29.4412,-92.0613,20.99,11111222 
WAVCIS,ioos:station:WAVCIS:CSI03:1,2015-12-12T03:00:00Z,29.4412,-92.0613,20.5,11111222 
WAVCIS,ioos:station:WAVCIS:CSI03:1,2015-12-12T04:00:00Z,29.4412,-92.0613,20.4,11111222 
WAVCIS,ioos:station:WAVCIS:CSI03:1,2015-12-12T05:00:00Z,29.4412,-92.0613,20.35,11111222 